Satellite: RS-38
Catalog number: 35869
Epoch time: 10133.76808857
Element set: 296
Inclination: 098.7601 deg
RA of node: 187.8375 deg
Eccentricity: 0.0005419
Arg of perigee: 099.9653 deg
Mean anomaly: 260.2095 deg
Mean motion: 14.21981425 rev/day
Decay rate: 1.77e-06 rev/day^2
Epoch rev: 3383
Checksum: 349
/EX
More information about the Keps
mailing list